FRS39N EDWG-EDWG

Flight info

Callsign FRS39N
Flight time 0h 11m
Altitude 1000
Route EDD----- EDWG DAYLIGHT, CARTS ,VFR , V RUNDFLUG
Aircraft C172/L-SDE3/7000

Departure

Time 2026-04-24 16:41
Airport Wangerooge Airport (EDWG)

Arrival

Time 2026-04-24 16:53
Airport Wangerooge Airport (EDWG)
Time Latitude Longitude Altitude Speed Heading
2026-04-24 16:32 53.78769 7.91019 3 ft 0 kts 247°
2026-04-24 16:36 53.78812 7.90942 4 ft 14 kts 295°
2026-04-24 16:36 53.78785 7.90903 6 ft 0 kts 173°
2026-04-24 16:36 53.78739 7.90927 9 ft 17 kts 161°
2026-04-24 16:36 53.78637 7.90992 7 ft 15 kts 160°
2026-04-24 16:37 53.78545 7.91053 9 ft 10 kts 160°
2026-04-24 16:37 53.78497 7.91116 9 ft 9 kts 125°
2026-04-24 16:37 53.78469 7.91182 7 ft 12 kts 126°
2026-04-24 16:37 53.78392 7.91359 7 ft 15 kts 127°
2026-04-24 16:38 53.78333 7.91526 3 ft 18 kts 99°
2026-04-24 16:38 53.78325 7.91730 2 ft 17 kts 94°
2026-04-24 16:38 53.78315 7.91942 -1 ft 18 kts 96°
2026-04-24 16:38 53.78307 7.92144 2 ft 16 kts 94°
2026-04-24 16:39 53.78300 7.92321 3 ft 14 kts 94°
2026-04-24 16:39 53.78292 7.92483 5 ft 12 kts 94°
2026-04-24 16:39 53.78288 7.92586 6 ft 4 kts 103°
2026-04-24 16:39 53.78277 7.92605 6 ft 0 kts 169°
2026-04-24 16:40 53.78272 7.92606 6 ft 4 kts 178°
2026-04-24 16:40 53.78228 7.92580 5 ft 7 kts 252°
2026-04-24 16:40 53.78238 7.92300 2 ft 49 kts 274°
2026-04-24 16:41 53.78281 7.91561 123 ft 67 kts 276°
2026-04-24 16:41 53.78354 7.90817 363 ft 62 kts 280°
2026-04-24 16:41 53.78431 7.90107 576 ft 62 kts 268°
2026-04-24 16:41 53.78160 7.89527 716 ft 77 kts 197°
2026-04-24 16:42 53.77637 7.89789 922 ft 83 kts 140°
2026-04-24 16:42 53.77272 7.90616 1030 ft 98 kts 121°
2026-04-24 16:42 53.76929 7.91740 1041 ft 115 kts 117°
2026-04-24 16:42 53.76593 7.92993 1118 ft 115 kts 113°
2026-04-24 16:43 53.76335 7.94237 1140 ft 114 kts 105°
2026-04-24 16:43 53.76235 7.95599 1090 ft 118 kts 90°
2026-04-24 16:43 53.76374 7.96930 1087 ft 116 kts 62°
2026-04-24 16:43 53.76904 7.97922 1066 ft 114 kts 34°
2026-04-24 16:44 53.77605 7.98576 1034 ft 114 kts 17°
2026-04-24 16:44 53.78357 7.98560 1048 ft 110 kts 337°
2026-04-24 16:44 53.78952 7.97806 1065 ft 108 kts 305°
2026-04-24 16:44 53.79321 7.96673 999 ft 112 kts 295°
2026-04-24 16:45 53.79650 7.95510 1026 ft 108 kts 294°
2026-04-24 16:45 53.79948 7.94322 1003 ft 111 kts 289°
2026-04-24 16:45 53.80190 7.93113 1025 ft 108 kts 285°
2026-04-24 16:45 53.80366 7.91888 1026 ft 108 kts 280°
2026-04-24 16:46 53.80499 7.90646 1021 ft 108 kts 278°
2026-04-24 16:46 53.80543 7.89368 1003 ft 109 kts 268°
2026-04-24 16:46 53.80454 7.88117 1015 ft 107 kts 257°
2026-04-24 16:46 53.80241 7.86898 995 ft 109 kts 252°
2026-04-24 16:47 53.80069 7.86100 1009 ft 109 kts 248°
2026-04-24 16:47 53.79727 7.84963 1029 ft 107 kts 240°
2026-04-24 16:47 53.79058 7.83735 1005 ft 110 kts 212°
2026-04-24 16:47 53.78336 7.83371 929 ft 111 kts 180°
2026-04-24 16:48 53.77812 7.83549 832 ft 115 kts 162°
2026-04-24 16:48 53.77138 7.84136 853 ft 107 kts 141°
2026-04-24 16:48 53.76702 7.85149 799 ft 110 kts 112°
2026-04-24 16:48 53.76541 7.86391 778 ft 107 kts 95°
2026-04-24 16:49 53.76449 7.87621 809 ft 101 kts 101°
2026-04-24 16:49 53.76341 7.88779 804 ft 103 kts 98°
2026-04-24 16:49 53.76268 7.89986 821 ft 104 kts 95°
2026-04-24 16:49 53.76208 7.91208 850 ft 103 kts 92°
2026-04-24 16:50 53.76195 7.92008 867 ft 102 kts 90°
2026-04-24 16:50 53.76232 7.93583 904 ft 95 kts 86°
2026-04-24 16:50 53.76302 7.94725 787 ft 99 kts 81°
2026-04-24 16:50 53.76486 7.95782 767 ft 90 kts 57°
2026-04-24 16:51 53.76922 7.96440 787 ft 83 kts 26°
2026-04-24 16:51 53.77438 7.96802 828 ft 77 kts
2026-04-24 16:51 53.77865 7.96418 858 ft 72 kts 302°
2026-04-24 16:51 53.78116 7.95670 823 ft 69 kts 286°
2026-04-24 16:52 53.78157 7.94891 686 ft 67 kts 275°
2026-04-24 16:52 53.78194 7.94084 491 ft 70 kts 272°
2026-04-24 16:52 53.78213 7.93277 246 ft 67 kts 274°
2026-04-24 16:52 53.78243 7.92501 27 ft 62 kts 269°
2026-04-24 16:53 53.78256 7.91918 -1 ft 29 kts 271°
2026-04-24 16:53 53.78262 7.91759 -2 ft 6 kts 297°
2026-04-24 16:53 53.78289 7.91749 -1 ft 3 kts
2026-04-24 16:53 53.78315 7.91749 1 ft 5 kts 336°
2026-04-24 16:54 53.78326 7.91647 3 ft 11 kts 276°
2026-04-24 16:54 53.78333 7.91504 3 ft 12 kts 285°
2026-04-24 16:54 53.78372 7.91403 6 ft 9 kts 306°
2026-04-24 16:54 53.78413 7.91307 7 ft 12 kts 305°
2026-04-24 16:55 53.78464 7.91186 7 ft 13 kts 303°
2026-04-24 16:55 53.78513 7.91080 9 ft 10 kts 315°
2026-04-24 16:55 53.78584 7.91027 4 ft 15 kts 335°
2026-04-24 16:55 53.78670 7.90968 9 ft 11 kts 340°
2026-04-24 16:56 53.78733 7.90927 9 ft 8 kts 339°
2026-04-24 16:56 53.78777 7.90887 6 ft 0 kts 323°
2026-04-24 16:56 53.78796 7.90874 6 ft 0 kts 38°
2026-04-24 16:56 53.78802 7.90887 5 ft 0 kts 59°